Culdrose, United Kingdom

8:08 AM BST on April 27, 2018 (GMT +0100)
Culdrose Navy

Weather History for EGDR - October, 2011

Change the Weather History Date:

Saturday, October 8, 2011

  Actual Average Record
Temperature  
Mean Temperature 55 °F -  
Max Temperature 60 °F 55 °F 64 °F (2010)
Min Temperature 50 °F 47 °F 39 °F (2004)
Degree Days  
Heating Degree Days 10    
Growing Degree Days 5 (Base 50)    
Moisture  
Dew Point 53 °F    
Average Humidity 89    
Maximum Humidity 100    
Minimum Humidity 76    
Precipitation  
Precipitation 0.00 in - - ()
Sea Level Pressure  
Sea Level Pressure 30.32 in    
Wind  
Wind Speed 11 mph ()    
Max Wind Speed 16 mph    
Max Gust Speed 28 mph    
Visibility 5.9 miles    
Events Rain    
Averages and records for this station are not official NWS values.
T = Trace of Precipitation, MM = Missing Value Source: Averaged Metar Reports

Daily Weather History Graph

Daily Weather History Graph

Search for Another Location

Airport or City:

Astronomy

Oct. 08, 2011 Rise Set
Actual Time 7:31 AM BST 6:45 PM BST
Civil Twilight 6:58 AM BST 7:17 PM BST
Nautical Twilight 6:21 AM BST 7:54 PM BST
Astronomical Twilight 5:43 AM BST 8:32 PM BST
Moon 5:03 PM BST (10/8) 3:47 AM BST (10/8)
Length of Visible Light 12h 18m
Length of Day
11h 14m
Waxing Gibbous, 88% of the Moon is Illuminated
Oct 8
Waxing Gibbous
Oct 12
Full
Oct 20
Last Quarter
Oct 26
New
Nov 2
First Quarter

Hourly Weather History & Observations

Time (BST) Temp. Dew Point Humidity Pressure Visibility Wind Dir Wind Speed Gust Speed Precip Events Conditions
12:50 AM 51 °F 47 °F 83% 30.38 in 12 mi NW 8.1 mph - -   Scattered Clouds
12:50 AM 51.8 °F 48.2 °F 88% 30.36 in 6.2 mi NW 8.1 mph - N/A   Partly Cloudy
1:50 AM 51.8 °F 48.2 °F 88% 30.36 in 6.2 mi NW 10.4 mph - N/A   Partly Cloudy
2:50 AM 51.8 °F 48.2 °F 88% 30.36 in 6.2 mi NW 12.7 mph - N/A   Partly Cloudy
3:50 AM 52 °F 47 °F 76% 30.36 in 12 mi NW 13.8 mph - -   Scattered Clouds
3:50 AM 51.8 °F 46.4 °F 82% 30.36 in 6.2 mi NW 13.8 mph - N/A   Partly Cloudy
4:50 AM 51.8 °F 46.4 °F 82% 30.33 in 6.2 mi NW 15.0 mph - N/A   Partly Cloudy
5:50 AM 51.8 °F 46.4 °F 82% 30.33 in 6.2 mi WNW 12.7 mph - N/A   Partly Cloudy
6:50 AM 53 °F 48 °F 79% 30.35 in 12 mi WNW 10.4 mph - -   Mostly Cloudy
6:50 AM 51.8 °F 48.2 °F 88% 30.33 in 6.2 mi WNW 10.4 mph - N/A   Mostly Cloudy
7:50 AM 51.8 °F 48.2 °F 88% 30.33 in 6.2 mi WNW 9.2 mph - N/A   Scattered Clouds
8:50 AM 53.6 °F 50.0 °F 88% 30.33 in 6.2 mi WNW 10.4 mph - N/A   Scattered Clouds
9:50 AM 56 °F 51 °F 76% 30.36 in 12 mi NW 13.8 mph - -   Mostly Cloudy
9:50 AM 55.4 °F 50.0 °F 82% 30.36 in 6.2 mi NW 13.8 mph - N/A   Scattered Clouds
10:50 AM 57.2 °F 51.8 °F 82% 30.33 in 6.2 mi NW 16.1 mph 27.6 mph N/A   Mostly Cloudy
12:50 PM 59.0 °F 55.4 °F 88% 30.33 in 6.2 mi WNW 16.1 mph - N/A   Mostly Cloudy
1:50 PM 60.8 °F 57.2 °F 88% 30.33 in 6.2 mi NW 16.1 mph - N/A   Mostly Cloudy
2:50 PM 60.8 °F 57.2 °F 88% 30.30 in 6.2 mi NW 16.1 mph - N/A   Mostly Cloudy
3:50 PM 59 °F 57 °F 89% 30.32 in 16 mi NW 16.1 mph - -   Mostly Cloudy
3:50 PM 59.0 °F 57.2 °F 94% 30.30 in 6.2 mi NW 16.1 mph 27.6 mph N/A   Mostly Cloudy
4:50 PM 59.0 °F 57.2 °F 94% 30.30 in 3.7 mi WNW 6.9 mph 23.0 mph N/A Rain Light Rain
5:50 PM 57.2 °F 55.4 °F 94% 30.30 in 3.1 mi WNW 13.8 mph - N/A Rain Light Rain
6:50 PM 57 °F 56 °F 97% 30.30 in 1 mi WNW 11.5 mph - - Rain Drizzle
6:50 PM 57.2 °F 57.2 °F 100% 30.30 in 1.2 mi WNW 11.5 mph - N/A   Drizzle
7:50 PM 57.2 °F 57.2 °F 100% 30.30 in 1.2 mi WNW 15.0 mph 26.5 mph N/A   Drizzle
8:50 PM 57.2 °F 57.2 °F 100% 30.30 in 1.9 mi NW 12.7 mph 24.2 mph N/A   Light Drizzle
9:50 PM 58 °F 58 °F 98% 30.29 in 2 mi NW 16.1 mph - - Rain Light Drizzle
9:50 PM 57.2 °F 57.2 °F 100% 30.27 in 1.9 mi NW 16.1 mph - N/A   Overcast
10:50 PM 59.0 °F 57.2 °F 94% 30.27 in 2.5 mi NW 10.4 mph - N/A   Overcast
11:50 PM 59.0 °F 57.2 °F 94% 30.27 in 2.5 mi West 4.6 mph - N/A   Overcast